• En España
  • Lista de países
  • Para 7 días
  • Temperatura del agua
  • Mapa Satelital
  • El tiempo en el mapa
  • Informadores
  • user-avatar
    Iniciar sesión

    Tiempo cada hora Zandzhan

    Hoy, 13 Noviembre, Martes

    Tiempo Temperatura Precipitaciones Viento Presión Humedad
    00:00 +6°C° 0 mm 2 mps 617 mmHg 80%
    01:00 +6°C° 0.1 mm 2 mps 616 mmHg 81%
    02:00 +5°C° 0.1 mm 2 mps 616 mmHg 82%
    03:00 +5°C° 0.1 mm 2 mps 616 mmHg 83%
    04:00 +5°C° 0.1 mm 2 mps 616 mmHg 84%
    05:00 +6°C° 0.1 mm 1 mps 616 mmHg 85%
    06:00 +5°C° 0.1 mm 1 mps 616 mmHg 85%
    07:00 +5°C° 0.1 mm 2 mps 616 mmHg 82%
    08:00 +5°C° 0.1 mm 2 mps 617 mmHg 78%
    09:00 +6°C° 0.1 mm 2 mps 617 mmHg 74%
    10:00 +6°C° 0 mm 2 mps 617 mmHg 70%
    11:00 +7°C° 0 mm 2 mps 617 mmHg 67%
    12:00 +8°C° 0 mm 2 mps 617 mmHg 63%
    13:00 +8°C° 0 mm 3 mps 617 mmHg 62%
    14:00 +8°C° 0 mm 3 mps 617 mmHg 62%
    15:00 +8°C° 0 mm 3 mps 617 mmHg 61%
    16:00 +7°C° 0 mm 3 mps 617 mmHg 64%
    17:00 +7°C° 0 mm 3 mps 617 mmHg 67%
    18:00 +5°C° 0 mm 3 mps 616 mmHg 70%
    19:00 +4°C° 0 mm 3 mps 616 mmHg 72%
    20:00 +5°C° 0 mm 2 mps 616 mmHg 74%
    21:00 +5°C° 0 mm 2 mps 616 mmHg 76%
    22:00 +4°C° 0 mm 2 mps 616 mmHg 77%
    23:00 +4°C° 0 mm 2 mps 616 mmHg 78%

    Mañana, 14 Noviembre, Miércoles

    Tiempo Temperatura Precipitaciones Viento Presión Humedad
    00:00 +4°C° 0 mm 2 mps 616 mmHg 79%
    01:00 +3°C° 0 mm 2 mps 616 mmHg 80%
    02:00 +3°C° 0 mm 2 mps 616 mmHg 80%
    03:00 +3°C° 0 mm 2 mps 615 mmHg 81%
    04:00 +3°C° 0.1 mm 2 mps 615 mmHg 81%
    05:00 +3°C° 0.1 mm 2 mps 615 mmHg 81%
    06:00 +3°C° 0.1 mm 2 mps 615 mmHg 82%
    07:00 +3°C° 0.1 mm 2 mps 615 mmHg 79%
    08:00 +4°C° 0.1 mm 2 mps 615 mmHg 77%
    09:00 +4°C° 0.1 mm 2 mps 615 mmHg 74%
    10:00 +5°C° 0 mm 2 mps 615 mmHg 70%
    11:00 +5°C° 0 mm 3 mps 615 mmHg 66%
    12:00 +7°C° 0 mm 3 mps 615 mmHg 62%
    13:00 +7°C° 0 mm 3 mps 615 mmHg 62%
    14:00 +7°C° 0 mm 3 mps 615 mmHg 62%
    15:00 +7°C° 0 mm 3 mps 614 mmHg 62%
    16:00 +7°C° 0 mm 3 mps 614 mmHg 65%
    17:00 +5°C° 0 mm 3 mps 614 mmHg 67%
    18:00 +5°C° 0 mm 3 mps 614 mmHg 70%
    19:00 +5°C° 0.1 mm 3 mps 614 mmHg 72%
    20:00 +5°C° 0.1 mm 3 mps 614 mmHg 74%
    21:00 +4°C° 0.1 mm 3 mps 614 mmHg 76%
    22:00 +4°C° 0.3 mm 3 mps 614 mmHg 76%
    23:00 +5°C° 0.3 mm 2 mps 614 mmHg 77%

    Pasado mañana, 15 Noviembre, Jueves

    Tiempo Temperatura Precipitaciones Viento Presión Humedad
    00:00 +5°C° 0.3 mm 2 mps 614 mmHg 78%
    01:00 +5°C° 0.4 mm 2 mps 614 mmHg 79%
    02:00 +5°C° 0.4 mm 2 mps 614 mmHg 79%
    03:00 +5°C° 0.4 mm 2 mps 614 mmHg 80%
    04:00 +5°C° 0.3 mm 2 mps 614 mmHg 80%
    05:00 +5°C° 0.3 mm 2 mps 614 mmHg 81%
    06:00 +5°C° 0.3 mm 2 mps 614 mmHg 81%
    07:00 +4°C° 0 mm 3 mps 614 mmHg 77%
    08:00 +5°C° 0 mm 3 mps 615 mmHg 73%
    09:00 +5°C° 0 mm 3 mps 615 mmHg 70%
    10:00 +7°C° 0 mm 3 mps 615 mmHg 66%
    11:00 +7°C° 0 mm 4 mps 615 mmHg 61%
    12:00 +8°C° 0 mm 4 mps 615 mmHg 57%
    13:00 +10°C° 0 mm 4 mps 615 mmHg 55%
    14:00 +10°C° 0 mm 4 mps 615 mmHg 54%
    15:00 +11°C° 0 mm 4 mps 615 mmHg 52%
    16:00 +10°C° 0 mm 3 mps 615 mmHg 55%
    17:00 +9°C° 0 mm 3 mps 615 mmHg 58%
    18:00 +8°C° 0 mm 2 mps 615 mmHg 61%
    19:00 +8°C° 0.1 mm 2 mps 615 mmHg 63%
    20:00 +8°C° 0.1 mm 2 mps 615 mmHg 66%
    21:00 +7°C° 0.1 mm 2 mps 615 mmHg 68%
    22:00 +7°C° 0.1 mm 2 mps 615 mmHg 69%
    23:00 +7°C° 0.1 mm 2 mps 615 mmHg 71%

    16 Noviembre, Viernes

    Tiempo Temperatura Precipitaciones Viento Presión Humedad
    00:00 +6°C° 0.1 mm 2 mps 615 mmHg 72%
    01:00 +6°C° 0.1 mm 2 mps 615 mmHg 72%
    02:00 +6°C° 0.1 mm 2 mps 615 mmHg 72%
    03:00 +6°C° 0.1 mm 2 mps 614 mmHg 73%
    04:00 +6°C° 0.1 mm 2 mps 615 mmHg 73%
    05:00 +6°C° 0.1 mm 2 mps 615 mmHg 73%
    06:00 +5°C° 0.1 mm 2 mps 615 mmHg 73%
    07:00 +6°C° 0.1 mm 2 mps 616 mmHg 71%
    08:00 +7°C° 0.1 mm 2 mps 616 mmHg 68%
    09:00 +7°C° 0.1 mm 2 mps 617 mmHg 66%
    10:00 +8°C° 0.1 mm 2 mps 617 mmHg 63%
    11:00 +9°C° 0.1 mm 3 mps 617 mmHg 60%
    12:00 +10°C° 0.1 mm 3 mps 617 mmHg 57%
    13:00 +10°C° 0.1 mm 3 mps 617 mmHg 56%
    14:00 +12°C° 0.1 mm 2 mps 617 mmHg 55%
    15:00 +12°C° 0.1 mm 2 mps 617 mmHg 54%
    16:00 +10°C° 0.1 mm 2 mps 617 mmHg 58%
    17:00 +10°C° 0.1 mm 2 mps 617 mmHg 62%
    18:00 +9°C° 0.1 mm 2 mps 617 mmHg 66%
    19:00 +8°C° 0 mm 2 mps 617 mmHg 69%
    20:00 +8°C° 0 mm 2 mps 617 mmHg 72%
    21:00 +7°C° 0 mm 2 mps 617 mmHg 75%
    22:00 +7°C° 0 mm 2 mps 617 mmHg 76%
    23:00 +7°C° 0 mm 2 mps 616 mmHg 77%

    17 Noviembre, Sábado

    Tiempo Temperatura Precipitaciones Viento Presión Humedad
    00:00 +6°C° 0 mm 2 mps 616 mmHg 78%
    01:00 +6°C° 0 mm 2 mps 616 mmHg 78%
    02:00 +6°C° 0 mm 2 mps 616 mmHg 79%
    03:00 +6°C° 0 mm 2 mps 616 mmHg 79%
    04:00 +5°C° 0 mm 2 mps 616 mmHg 79%
    05:00 +5°C° 0 mm 2 mps 616 mmHg 79%
    06:00 +5°C° 0 mm 2 mps 616 mmHg 78%
    07:00 +6°C° 0 mm 2 mps 617 mmHg 72%
    08:00 +8°C° 0 mm 2 mps 617 mmHg 66%
    09:00 +9°C° 0 mm 2 mps 618 mmHg 60%
    10:00 +10°C° 0 mm 3 mps 618 mmHg 55%
    11:00 +11°C° 0 mm 4 mps 618 mmHg 50%
    12:00 +12°C° 0 mm 5 mps 618 mmHg 45%
    13:00 +12°C° 0 mm 5 mps 617 mmHg 44%
    14:00 +12°C° 0 mm 5 mps 617 mmHg 42%
    15:00 +12°C° 0 mm 5 mps 617 mmHg 41%
    16:00 +11°C° 0 mm 4 mps 617 mmHg 44%
    17:00 +10°C° 0 mm 3 mps 617 mmHg 47%
    18:00 +9°C° 0 mm 2 mps 617 mmHg 51%
    19:00 +9°C° 0 mm 2 mps 616 mmHg 53%
    20:00 +8°C° 0 mm 2 mps 616 mmHg 55%
    21:00 +8°C° 0 mm 2 mps 616 mmHg 57%
    22:00 +7°C° 0 mm 2 mps 616 mmHg 59%
    23:00 +7°C° 0 mm 2 mps 615 mmHg 61%

    18 Noviembre, Domingo

    Tiempo Temperatura Precipitaciones Viento Presión Humedad
    00:00 +7°C° 0 mm 2 mps 615 mmHg 63%
    01:00 +6°C° 0 mm 2 mps 615 mmHg 65%
    02:00 +6°C° 0 mm 2 mps 615 mmHg 68%
    03:00 +5°C° 0 mm 2 mps 614 mmHg 70%
    04:00 +5°C° 0 mm 2 mps 614 mmHg 72%
    05:00 +6°C° 0 mm 1 mps 614 mmHg 74%
    06:00 +5°C° 0 mm 1 mps 614 mmHg 76%
    07:00 +6°C° 0 mm 1 mps 615 mmHg 71%
    08:00 +7°C° 0 mm 1 mps 615 mmHg 66%
    09:00 +7°C° 0 mm 2 mps 616 mmHg 61%
    10:00 +8°C° 0 mm 2 mps 616 mmHg 55%
    11:00 +9°C° 0 mm 2 mps 615 mmHg 48%
    12:00 +10°C° 0 mm 3 mps 615 mmHg 42%
    13:00 +10°C° 0 mm 3 mps 615 mmHg 39%
    14:00 +11°C° 0 mm 3 mps 615 mmHg 36%
    15:00 +11°C° 0 mm 4 mps 615 mmHg 33%
    16:00 +10°C° 0 mm 3 mps 614 mmHg 37%
    17:00 +9°C° 0 mm 2 mps 614 mmHg 40%
    18:00 +9°C° 0 mm 1 mps 614 mmHg 43%
    19:00 +8°C° 0 mm 2 mps 614 mmHg 46%
    20:00 +7°C° 0 mm 2 mps 614 mmHg 48%
    21:00 +7°C° 0 mm 2 mps 614 mmHg 50%
    22:00 +6°C° 0 mm 2 mps 613 mmHg 51%
    23:00 +6°C° 0 mm 2 mps 613 mmHg 52%
    Mostrar más